Regional Weather Roundup
Issued by NWS Sioux Falls, SD

Home | Current Version | Previous Version | Graphics & Text | Print | Product List | Glossary On
Versions: 1 2 3 4 5 6 7 8 9 10 11 12 13 14 15 16 17 18 19 20 21 22 23 24 25 26 27 28 29 30 31 32 33 34 35 36 37 38 39 40 41 42 43 44 45 46 47 48 49 50
000
ASUS43 KFSD 032302
RWRFSD

WEATHER ROUNDUP FOR SE SOUTH DAKOTA/SW MINNESOTA/NW IOWA
NATIONAL WEATHER SERVICE SIOUX FALLS SD
600 PM CDT FRI JUL 03 2015

NOTE: "FAIR" INDICATES FEW OR NO CLOUDS BELOW 12,000 FEET WITH NO
SIGNIFICANT WEATHER AND OR OBSTRUCTIONS TO VISIBILITY.


SDZ038>040-050-052>070-040000-
SOUTHEAST SOUTH DAKOTA

CITY           SKY/WX    TMP DP  RH WIND       PRES   REMARKS
BROOKINGS      MOSUNNY   79  64  61 W7        29.97S
CHAMBERLAIN    NOT AVBL
HURON          MOSUNNY   80  67  64 S6        29.93S
MADISON        FAIR      77  66  69 W5        29.97S
MITCHELL       SUNNY     81  66  60 SE3       29.95S
SIOUX FALLS    PTSUNNY   78  63  59 N3        29.96F
WINNER         MOCLDY    85  55  35 CALM      29.96S
YANKTON        SUNNY     79  61  53 NW6       29.94F
$$

MNZ071-072-080-081-089-090-097-098-040000-
SOUTHWEST MINNESOTA

CITY           SKY/WX    TMP DP  RH WIND       PRES   REMARKS
FAIRMONT       SUNNY     79  45  29 CALM      29.94F
JACKSON        SUNNY     79  55  44 W6        29.97S
LUVERNE        MOSUNNY   79  61  53 SW6       29.97S
MARSHALL       SUNNY     81  63  54 CALM      29.92S
MONTEVIDEO     SUNNY     84  66  54 CALM      29.92S
PIPESTONE      MOSUNNY   79  63  57 W3        29.96S
REDWOOD FALLS  SUNNY     80  59  48 VRB3      29.92F
TRACY          SUNNY     81  63  55 SW3       29.94S
WINDOM         SUNNY     79  55  44 W6        29.95S
WORTHINGTON    SUNNY     75  57  53 SW3       29.96F
$$

IAZ001>003-012>014-020>022-031-032-NEZ013-014-SDZ071-040000-
NORTHWEST IOWA

CITY           SKY/WX    TMP DP  RH WIND       PRES   REMARKS
DENISON        SUNNY     75  52  43 W5        29.96S
ESTHERVILLE    SUNNY     76  58  53 SW6       29.96S
SIOUX CITY     SUNNY     79  57  46 CALM      29.97S
SPENCER        SUNNY     78  55  44 W6        29.97S
$$

ABBREVIATIONS USED IN REMARKS
   TC - TEMPERATURE IN CELSIUS
  WCI - WIND CHILL INDEX
   HX - HEAT INDEX
  VSB - VISIBILITY




USA.gov is the U.S. government's official web portal to all federal, state and local government web resources and services.